Tracking 19575 objects as of 18-Feb-2019
HD Live streaming from Space Station
objects crossing your sky now

METEOR 2-5 DEB

Track METEOR 2-5 DEB now!
10-day predictions


NORAD ID: 36899
Int'l Code: 1979-095AQ
Perigee: 555.1 km
Apogee: 562.6 km
Inclination: 81.1 °
Period: 95.7 minutes
Semi major axis: 6929 km
RCS: 0.0161 m2 (small)
Launch date: October 31, 1979
Source: Commonwealth of Independent States (former USSR) (CIS)
Launch site: PLESETSK MISSILE AND SPACE COMPLEX (PKMTR)

Note: This is SATELLITE DEBRIS
aabbcc
Your satellite tracking list
Your tracking list is empty




NASA's NSSDC Master Catalog

Two Line Element Set (TLE):
1 36899U 79095AQ  19047.02448147  .00008455  00000-0  59546-3 0  9990
2 36899  81.0943 165.4536 0005407 211.0711 149.0193 15.04921128844018
Source of the keplerian elements: AFSPC